Hourly Data Report for October 24, 2015

All times are specified in Local Standard Time (LST). Add 1 hour to adjust for Daylight Saving Time where and when it is observed.

TORONTO INTL A
ONTARIO

43°40'36.000" N
79°37'50.000" W
173.40 m
6158731
71624
YYZ

Download Data

Hourly Data (October 2015)
Hourly Data Report for October 24, 2015
Temp Definition
°C
Dew Point Temp Definition
°C
Rel Hum Definition
%
Wind Dir Definition
10's deg

Wind Spd Definition
km/h
Visibility Definition
km
Stn Press Definition
kPa
Hmdx Definition


Wind Chill Definition


Weather Definition


TIME
00:00 Legend Double Dagger 7.3 1.6 67 12 25 24.1 100.30     LegendNANA
01:00 Legend Double Dagger 7.0 2.1 71 11 31 24.1 100.15     Cloudy
02:00 Legend Double Dagger 7.2 2.1 70 11 21 24.1 100.10     LegendNANA
03:00 Legend Double Dagger 7.2 2.3 71 10 12 24.1 100.08     LegendNANA
04:00 Legend Double Dagger 7.5 2.2 69 11 12 24.1 99.98     Mostly Cloudy
05:00 Legend Double Dagger 7.4 2.5 71 8 14 24.1 99.90     LegendNANA
06:00 Legend Double Dagger 7.8 3.5 74 19 9 24.1 99.90     LegendNANA
07:00 Legend Double Dagger 8.1 3.8 74 11 14 24.1 99.80     Cloudy
08:00 Legend Double Dagger 8.9 3.6 69 12 12 24.1 99.76     LegendNANA
09:00 Legend Double Dagger 9.8 4.2 68 10 9 24.1 99.68     LegendNANA
10:00 Legend Double Dagger 10.7 4.9 67 13 12 24.1 99.66     Rain
11:00 Legend Double Dagger 10.3 7.0 80 12 10 24.1 99.57     Rain
12:00 Legend Double Dagger 10.4 7.7 83 13 10 24.1 99.52     Rain
13:00 Legend Double Dagger 10.1 7.9 86 13 12 16.1 99.40     Rain
14:00 Legend Double Dagger 9.9 8.0 88 12 16 24.1 99.24     Rain
15:00 Legend Double Dagger 10.7 8.8 88 12 14 12.9 99.20     Rain
16:00 Legend Double Dagger 11.1 9.9 92 14 10 19.3 99.10     Cloudy
17:00 Legend Double Dagger 11.3 10.2 93 12 11 9.7 98.97     Fog
18:00 Legend Double Dagger 11.9 10.3 90 13 9 9.7 98.92     Fog
19:00 Legend Double Dagger 12.6 11.2 91 15 12 16.1 98.82     Cloudy
20:00 Legend Double Dagger 14.5 13.1 91 17 14 16.1 98.69     LegendNANA
21:00 Legend Double Dagger 15.7 14.3 91 19 17 4.8 98.66     Moderate Rain,Fog
22:00 Legend Double Dagger 15.9 15.0 94 22 21 16.1 98.67     Rain
23:00 Legend Double Dagger 15.5 13.4 87 23 19 24.1 98.73     LegendNANA

Notes on Data Quality.

Legend

  • E = Estimated
  • M = Missing
  • NA = Not Available
  • ‡ = Partner data that is not subject to review by the National Climate Archives
Date modified: